Terminal Aerodrome Forecast
Issued by NWS

Home | Current Version | Previous Version | Text Only | Print | Product List | Glossary On
Versions: 1 2 3 4 5 6 7 8 9 10 11 12 13 14 15 16 17 18 19 20 21
021
FTUS43 KSGF 261130
TAFJLN
TAF
KJLN 261130Z 2612/2712 18010KT 6SM BR SCT012 BKN025
     FM261400 18013KT P6SM VCSH SCT015 BKN030
     FM261800 18013G23KT P6SM SCT025 BKN050
     FM262300 18012KT P6SM SCT025 BKN200
     FM270100 18012KT P6SM VCSH SCT025 BKN050=

USA.gov is the U.S. government's official web portal to all federal, state and local government web resources and services.